www.pogodaiklimat.ru

Погода и климат >> Архив погоды >> Россия >> Татарстан >> Казань


АРХИВ ПОГОДЫ в Казани

Время (UTC), дата Ветер
(напр.,м/с)
 
Видим.   Явления Облачность Т
(С)
Тd
(С)
f
(%)
Тe
(С)
Тes
(С)
Комфортность P
(гПа)
Po
(гПа)
Тmin
(С)
Tmax
(С)
R
(мм)
R24
(мм)
S
(см)
15 13.08 З 4 10 км 10/0
[Ci fib]
+26.3 +11.7 40 +28 +28 жарко 1007.2 993.6 +28.9
18 13.08 З 1 10 км 3/0
[Ci fib]
+22.2 +10.6 48 +24 +24 комфорт 1008.1 994.4
21 13.08 штиль 0 10 км ясно +18.8 +9.4 54 +19 +19 тепло 1009.1 995.2
00 14.08 ЮЗ 1 10 км 3/0
[Ac lent]
+16.1 +11.6 75 +17 +17 тепло 1009.2 995.2
03 14.08 З 2 10 км слабый дождь 10/5 600 м
[Sc As op]
+17.8 +10.1 61 +18 +18 тепло 1010.3 996.4 +15.4
06 14.08 СЗ 2 10 км {дождь} 10/5 1000 м
[Sc As op]
+19.6 +11.0 58 +21 +22 комфорт 1010.9 997.1
09 14.08 З 3 10 км 8/3 600 м
[Cu med, cong Ac trans Ci fib]
+21.3 +9.6 47 +23 +27 комфорт 1011.3 997.5
12 14.08 З 4 10 км 8/4 600 м
[Cu med, cong Ac trans]
+21.9 +8.3 42 +23 +25 комфорт 1011.3 997.5
15 14.08 СЗ 3 10 км {ливн. осадки} 3/3 1000 м
[Cu hum Ac trans]
+21.5 +7.7 41 +22 +23 комфорт 1012.0 998.2 +23.0
18 14.08 СЗ 1 10 км {ливн. осадки} 5/3 1000 м
[Sc diur, vesp Ac trans]
+19.3 +8.3 49 +21 +21 комфорт 1014.0 1000.1
21 14.08 штиль 0 10 км 4/0
[Ac trans]
+14.9 +10.1 73 +15 +15 по сезону 1015.2 1001.1
00 15.08 З 1 10 км ясно +13.9 +11.4 85 +14 +14 по сезону 1016.1 1001.9
03 15.08 СЗ 1 10 км 3/0
[Ac trans]
+16.3 +12.1 76 +17 +18 по сезону 1016.9 1002.8 +13.9
06 15.08 З 2 10 км 6/0
[Ci fib]
+20.4 +9.6 50 +22 +30 комфорт 1017.4 1003.5
09 15.08 З 3 10 км 6/4 600 м
[Cb cap Ci fib]
+23.3 +9.3 41 +25 +30 комфорт 1017.3 1003.5
12 15.08 З 3 10 км 5/3 600 м
[Cb cap Ci fib]
+24.9 +7.3 32 +25 +29 комфорт 1016.6 1002.9
15 15.08 З 1 10 км 9/3 600 м
[Sc diur, vesp Ac lent Ci]
+23.6 +7.1 35 +24 +24 комфорт 1016.4 1002.6 +25.2
18 15.08 ЮВ 1 10 км 8/0
[Ac lent Ci sp]
+19.3 +11.1 59 +21 +21 комфорт 1015.7 1001.7
21 15.08 Ю 1 10 км 10/3 600 м
[Sc As op]
+18.9 +10.1 57 +21 +21 комфорт 1014.6 1000.6
00 16.08 З 1 10 км слабый дождь 10/8 300 м
[Sc As op]
+19.4 +11.5 60 +22 +22 комфорт 1013.8 999.9
03 16.08 Ю 1 10 км {ливн. осадки, дождь} 9/3 600 м
[Sc Ac lent Ci sp]
+18.0 +14.2 78 +19 +20 тепло 1012.0 998.1 +16.8 2
06 16.08 З 3 10 км в посл. час ливневой дождь 9/8 600 м
[Cb calv Ac cast Ci sp]
+20.2 +14.2 68 +23 +24 комфорт 1011.9 998.1
09 16.08 З 3
{11}
10 км 9/9 1000 м
[Sc Ac As Cs]
+21.7 +16.3 71 +25 +26 комфорт 1011.8 998.0
12 16.08 З 3 10 км слабый ливневой дождь 9/8 600 м
[Cb calv Ac cast Ci fib]
+21.9 +18.2 80 +27 +28 душно 1012.2 998.5
15 16.08 СЗ 2 10 км {ливн. осадки} 9/4 600 м
[Cb calv Ac lent Ci]
+21.5 +15.4 68 +25 +25 комфорт 1012.7 998.9 +24.6 1
18 16.08 С 2 10 км {ливн. осадки} 8/8 300 м
[Sc diur, vesp]
+18.2 +14.1 77 +19 +19 тепло 1015.0 1001.0
21 16.08 С 1 10 км 6/1 600 м
[Sc Ac As Ci fib]
+15.5 +12.5 82 +16 +16 по сезону 1016.7 1002.6
00 17.08 С 1 10 км 9/9 300 м
[Sc]
+14.7 +12.8 88 +15 +15 по сезону 1018.2 1004.0
03 17.08 С 2 10 км {ливн. осадки} 9/9 300 м
[Cb calv Cc]
+14.5 +12.5 88 +14 +14 по сезону 1019.8 1005.5 +14.3 0.3
06 17.08 С 2 10 км {ливн. осадки} 3/3 1000 м
[Cu hum]
+17.9 +10.3 61 +18 +24 по сезону 1020.7 1006.6
09 17.08 С 2 10 км 5/5 1000 м
[Cu med, cong]
+19.8 +8.6 48 +21 +27 комфорт 1020.8 1006.8
12 17.08 С 3 10 км 5/5 600 м
[Sc diur, vesp]
+21.4 +6.2 37 +22 +25 комфорт 1020.4 1006.5
15 17.08 С 2 10 км 4/1 600 м
[Sc Ac lent]
+19.3 +7.1 45 +21 +21 комфорт 1020.7 1006.7 +21.7
18 17.08 С 2 10 км ясно +16.8 +7.2 53 +17 +17 по сезону 1021.6 1007.4
21 17.08 В 1 10 км ясно +13.7 +7.8 68 +14 +14 по сезону 1022.1 1007.8
00 18.08 С 1 10 км ясно +12.2 +8.2 77 +12 +12 по сезону 1023.2 1008.8
03 18.08 С 3 10 км ясно +11.6 +8.0 79 +10 +11 холодно 1024.4 1009.9 +10.7
06 18.08 С 3 10 км 3/3 600 м
[Cu hum]
+15.6 +8.2 61 +15 +20 прохладно 1024.6 1010.3
09 18.08 С 2 10 км 5/5 600 м
[Cu hum]
+18.6 +5.6 42 +19 +25 по сезону 1023.5 1009.4
12 18.08 С 2 10 км 8/8 600 м
[Cu hum]
+20.5 +5.4 37 +22 +23 комфорт 1022.8 1008.8
15 18.08 С 2 10 км 5/5 600 м
[Sc diur, vesp]
+19.2 +5.7 41 +20 +20 тепло 1022.3 1008.2 +20.7
18 18.08 штиль 0 10 км 3/3 1000 м
[Sc]
+15.2 +8.2 63 +15 +15 по сезону 1023.1 1008.8
21 18.08 штиль 0 10 км ясно +11.6 +9.0 84 +11 +11 прохладно 1023.5 1009.0
00 19.08 штиль 0 10 км 8/8 600 м
[Sc]
+11.2 +8.6 84 +11 +11 прохладно 1023.9 1009.5
03 19.08 штиль 0 10 км 4/4 600 м
[Sc]
+13.0 +8.3 73 +13 +13 прохладно 1024.1 1009.7 +11.0
06 19.08 В 2 10 км 3/0
[Ac trans]
+17.0 +7.8 55 +17 +24 по сезону 1023.7 1009.5
09 19.08 СВ 3 10 км 3/3 600 м
[Cu hum]
+19.4 +6.4 43 +20 +27 тепло 1022.3 1008.2
12 19.08 С 2 10 км 1/1 600 м
[Cu hum]
+21.3 +4.9 34 +22 +27 комфорт 1020.9 1007.0
15 19.08 В 1 10 км ясно +20.4 +4.7 36 +22 +23 комфорт 1020.0 1006.0 +21.8
18 19.08 штиль 0 10 км ясно +14.3 +9.0 70 +14 +14 по сезону 1020.0 1005.7
21 19.08 штиль 0 10 км 3/0
[Ac trans]
+13.1 +9.1 77 +13 +13 по сезону 1020.0 1005.7
00 20.08 В 1 10 км 8/8 600 м
[Sc]
+13.1 +8.9 76 +13 +13 по сезону 1018.9 1004.6
03 20.08 Ю 1 10 км 9/4 600 м
[Sc Ac cast Cc]
+13.8 +9.4 75 +14 +15 по сезону 1018.3 1004.0 +11.5
06 20.08 З 1 10 км 9/0
[Ac trans Cc]
+19.4 +10.2 55 +22 +27 комфорт 1016.9 1002.9
09 20.08 ЮЗ 2 10 км 10/0
[As op]
+21.1 +8.8 45 +22 +25 комфорт 1015.7 1001.9

 

Местоположение метеостанции Казань (Татарстан, Россия): широта 55.73 долгота 49.20 высота над уровнем моря 119 м.

В архиве по умолчанию представлена погода в Казани за последнюю неделю. Архивные данные за месяц целиком и за предыдущие месяцы, начиная с января 2011 года, Вы можете получить, выбрав интересующий диапазон дат из раскрывающегося списка и нажав кнопку "Ввод!".


*Определитесь, кто Вы:
робот инопланетянин человек

Внимание! Время в таблицах - всемирное. Для получения местного времени необходимо прибавить поправку, которая в Казани равна 3 ч.

Смотрите также архив погоды в соседних городах и на ближайших метеорологических станциях:

Погода в Лаишево (Татарстан, Россия) (40 км)
Погода в Вязовых (Татарстан, Россия) (44 км)
Погода в Арске (Татарстан, Россия) (57 км)
Погода в Камском Устье (Татарстан, Россия) (58 км)
Погода в Больших Кайбицах (Татарстан, Россия) (74 км)
Погода в Алексеевском (Татарстан, Россия) (74 км)
Погода в Морках (Марий-Эл, Россия) (79 км)
Погода в Богатых Сабах (Татарстан, Россия) (84 км)
Погода в Тетюшах (Татарстан, Россия) (91 км)
Погода в Чистополе (Татарстан, Россия) (102 км)

Пояснения к столбцам:

Ветер - указаны скорость ветра в м/с - средняя за 10 мин, порывы в срок и между сроками (в фигурных скобках) и направление, откуда дует ветер: С - северный, СВ - северо-восточный, В - восточный, ЮВ - юго-восточный, Ю - южный, ЮЗ - юго-западный, З - западный, СЗ - северо-западный.
Видимость - горизонтальная дальность видимости в метрах или километрах. При видимости от 1 до 10 км при отсутствии осадков обычно наблюдается дымка, при ухудшении видимости до 1 км и менее - туман. В сухую погоду видимость может ухудшаться дымом, пылью или мглою.
Явления - указаны атмосферные явления, наблюдавшиеся в срок или в последний час перед сроком; фигурными скобками обозначены явления, наблюдавшиеся между сроками (за 1-3 часа до срока); квадратными скобками обозначены град или гололедные отложения с указанием их диаметра в мм.
Облачность - указаны через наклонную черту общая и нижняя облачность в баллах и высота нижней границы облаков в метрах; квадратными скобками обозначены формы облаков: Ci - перистые, Cs - перисто-слоистые, Cc - перисто-кучевые, Ac - высококучевые, As - высокослоистые, Sc - слоисто-кучевые, Ns - слоисто-дождевые, Cu - кучевые, Cb - кучево-дождевые. Подробнее классификацию облаков см. в Атласе облаков (PDF).
T - Температура воздуха - температура, измеренная на высоте 2 м над землей.
Td - Температура точки росы - температура, при понижении до которой содержащийся в воздухе водяной пар достигнет насыщения.
f - Относительная влажность воздуха - влажноcть воздуха, измеренная на высоте 2 м над землей.
Te - Эффективная температура - температура, которую ощущает одетый по сезону человек в тени. Характеристика душности погоды. При расчете учитывается влияние влажности воздуха и скорости ветра на теплоощущения человека.
Tes - Эффективная температура на солнце - температура, которую ощущает человек, с поправкой на солнечный нагрев. Характеристика знойности погоды. Зависит от высоты солнца над горизонтом, облачности и скорости ветра. Ночью, в пасмурную погоду, а также при ветре 12 м/с и более поправка равна нулю.
P - Атмосферное давление - приведенное к уровню моря атмосферное давление.
Po - Атмосферное давление - измеренное на уровне метеостанции атмосферное давление.
Tmin - Минимальная температура - минимум температуры воздуха на высоте 2 м над землей.
Tmax - Максимальная температура - максимум температуры воздуха на высоте 2 м над землей.
R - Количество осадков - Количество выпавших осадков за период времени, мм. При наведении курсора мыши на число - период времени, за который выпало указанное количество осадков.
R24 - Количество осадков - Количество выпавших осадков за 24 часа, мм.
S - Снежный покров - Высота снежного покрова, см. При наведении курсора мыши на число - состояние снежного покрова и степень покрытия местности в баллах.